220P/McNaught (2004)

Japanese version
Home page
Updated on May 8, 2009

---------------------------------------------------------------------

* Profile

Designation 220P/2004 K2
Discovery Date May 20, 2004
Magnitude 17.7 mag
Discoverer R. H. McNaught (Siding Spring)

* Orbital Elements

                    Epoch = 2004 June  4.0 TT
     T = 2004 June 16.81457 TT        Peri. = 180.77298
     e = 0.5012692                    Node  = 150.12399 2000.0
     q = 1.5544515 AU                 Incl. =   8.12289
       a =  3.1168146 AU   n = 0.17911734   P =   5.503 years

* Finding Charts

* Magnitudes Graph

        m1 = 14.0 + 5 log d + 15.0 log r

---------------------------------------------------------------------

The orbital elements are printed on CBET 1790.
The charts are made with StellaNavigator Ver.2.0 for Windows (AstroArts / ASCII).
The magnitudes graphs are made with Comet for Windows.

---------------------------------------------------------------------

Copyright(C) Seiichi Yoshida (comet@aerith.net). All rights reserved.